Погода в Инте

Россия / Республика Коми     66°02′12″N   60°06′55″E
темп.,
°C
ветер,
м/с
пор.,
м/с
влажн.,
%
обл.,
%
осадки,
мм/ч
давл.,
гПа
погр.,
м
8 мая, сб
сб800:000в4676100 0.0 1015158
03:000в61071100 0.0 1014219
06:00+3в81054100 0.0 1012244
09:00+9вюв5655100 0.1 1011339
12:00+13ююв2360100 0.1 1010255
15:00+9юз9137499 0.6 10151144
18:00+8юз7117698 0.1 1017701
21:00+7юз487899 0.1 1020202
9 мая, вс
вс900:00+7ююз3481100 0.0 102167
03:00+6ю337893 0.0 102225
06:00+9юв456113 0.0 1022262
09:00+12юв564887 0.0 1022758
12:00+14юв44425 0.0 1021825
15:00+13юв6548100 0.0 1020590
18:00+12ююв4456100 0.0 1020244
21:00+10юв61159100 0.0 1019158
10 мая, пн
пн1000:00+11ююв8145244 0.0 1018152
03:00+12ююв8145447 0.0 1018155
06:00+15ююв8134919 0.0 1017316
09:00+20ю9153711 0.0 10152101
12:00+21ю101633100 0.0 10142593
15:00+14сз10961100 0.0 1015447
18:00+5зсз91087100 3.7 1021610
21:00+4з4589100 7.0 1024607
11 мая, вт
вт1100:00+4зюз2279100 0.9 1024389
03:00+4юз3486100 0.9 1025170
06:00+6юз45685 0.0 1025419
09:00+10зюз675431 0.0 10251050
12:00+11з6748100 0.1 10241921
15:00+11зюз455096 0.3 10241273
18:00+11юз345624 0.1 1024688
21:00+7ююз4685100 0.3 102495
12 мая, ср
ср1200:00+7ююв2280100 0.0 102414
03:00+7ююв337899 0.0 102535
06:00+8юз3675100 0.0 1025281
09:00+8юз4683100 0.1 1025280
12:00+9ююз3776100 0.0 1025373
15:00+11юз7970100 0.0 1024962
18:00+11юз81478100 0.0 1023519
21:00+11юз101879100 0.0 1019457